When you browse on this site, cookies collect data to enhance your experience and personalize the content and advertising you see.
Visit our Privacy Policy to learn more. By continuing to use the site, you agree to this use of cookies and data.
  • In Czech Republic
  • List of Countries
  • For 7 days
  • Water Temperature
  • Weather Map
  • Weather Widgets
  • user-avatar
    Login

    Hourly Weather Samozvanovka

    Today, 22 January, Wednesday

    Time Temperature Precipitation Wind Pressure Humidity
    00:00 -1°C° 0 mm 8 mps 732 mmHg 91%
    01:00 -2°C° 0 mm 8 mps 732 mmHg 86%
    02:00 -2°C° 0 mm 7 mps 732 mmHg 84%
    03:00 -3°C° 0 mm 6 mps 732 mmHg 85%
    04:00 -3°C° 0 mm 6 mps 732 mmHg 86%
    05:00 -4°C° 0 mm 6 mps 731 mmHg 87%
    06:00 -4°C° 0 mm 6 mps 731 mmHg 87%
    07:00 -4°C° 0 mm 6 mps 731 mmHg 87%
    08:00 -4°C° 0 mm 6 mps 730 mmHg 88%
    09:00 -3°C° 0 mm 6 mps 730 mmHg 88%
    10:00 -2°C° 0 mm 5 mps 729 mmHg 87%
    11:00 -2°C° 0 mm 5 mps 729 mmHg 86%
    12:00 -2°C° 0 mm 5 mps 728 mmHg 87%
    13:00 -2°C° 0 mm 5 mps 727 mmHg 87%
    14:00 -2°C° 0 mm 4 mps 727 mmHg 88%
    15:00 -2°C° 0.2 mm 5 mps 727 mmHg 91%
    16:00 -2°C° 0.2 mm 5 mps 726 mmHg 93%
    17:00 -2°C° 0.2 mm 5 mps 726 mmHg 96%
    18:00 -4°C° 0.4 mm 6 mps 726 mmHg 93%
    19:00 -4°C° 0.4 mm 6 mps 727 mmHg 91%
    20:00 -5°C° 0.4 mm 6 mps 727 mmHg 88%
    21:00 -5°C° 0 mm 6 mps 727 mmHg 88%
    22:00 -6°C° 0 mm 5 mps 728 mmHg 88%
    23:00 -7°C° 0 mm 5 mps 728 mmHg 87%

    Tomorrow, 23 January, Thursday

    Time Temperature Precipitation Wind Pressure Humidity
    00:00 -7°C° 0 mm 5 mps 729 mmHg 88%
    01:00 -7°C° 0 mm 5 mps 729 mmHg 88%
    02:00 -7°C° 0 mm 5 mps 730 mmHg 89%
    03:00 -8°C° 0.1 mm 6 mps 730 mmHg 89%
    04:00 -8°C° 0.1 mm 7 mps 730 mmHg 89%
    05:00 -8°C° 0.1 mm 7 mps 730 mmHg 90%
    06:00 -8°C° 0 mm 7 mps 731 mmHg 87%
    07:00 -9°C° 0 mm 7 mps 732 mmHg 85%
    08:00 -9°C° 0 mm 7 mps 732 mmHg 82%
    09:00 -9°C° 0 mm 7 mps 733 mmHg 81%
    10:00 -9°C° 0 mm 7 mps 734 mmHg 80%
    11:00 -9°C° 0 mm 6 mps 734 mmHg 79%
    12:00 -9°C° 0.1 mm 7 mps 735 mmHg 78%
    13:00 -9°C° 0.1 mm 7 mps 735 mmHg 77%
    14:00 -9°C° 0.1 mm 7 mps 736 mmHg 76%
    15:00 -10°C° 0 mm 6 mps 736 mmHg 77%
    16:00 -10°C° 0 mm 6 mps 736 mmHg 79%
    17:00 -11°C° 0 mm 5 mps 737 mmHg 80%
    18:00 -10°C° 0 mm 5 mps 737 mmHg 82%
    19:00 -10°C° 0 mm 5 mps 737 mmHg 84%
    20:00 -10°C° 0 mm 5 mps 738 mmHg 86%
    21:00 -10°C° 0 mm 5 mps 738 mmHg 87%
    22:00 -10°C° 0 mm 5 mps 739 mmHg 88%
    23:00 -9°C° 0 mm 4 mps 739 mmHg 88%

    Day after tomorrow, 24 January, Friday

    Time Temperature Precipitation Wind Pressure Humidity
    00:00 -10°C° 0 mm 4 mps 739 mmHg 89%
    01:00 -9°C° 0 mm 3 mps 739 mmHg 90%
    02:00 -10°C° 0 mm 3 mps 740 mmHg 91%
    03:00 -10°C° 0 mm 3 mps 740 mmHg 92%
    04:00 -10°C° 0 mm 3 mps 739 mmHg 92%
    05:00 -10°C° 0 mm 3 mps 739 mmHg 93%
    06:00 -9°C° 0 mm 3 mps 739 mmHg 92%
    07:00 -10°C° 0 mm 4 mps 739 mmHg 92%
    08:00 -10°C° 0 mm 4 mps 739 mmHg 91%
    09:00 -10°C° 0 mm 5 mps 738 mmHg 92%
    10:00 -7°C° 0 mm 5 mps 738 mmHg 92%
    11:00 -6°C° 0 mm 6 mps 737 mmHg 93%
    12:00 -7°C° 0.1 mm 7 mps 737 mmHg 93%
    13:00 -6°C° 0.1 mm 7 mps 736 mmHg 93%
    14:00 -6°C° 0.1 mm 8 mps 735 mmHg 93%
    15:00 -4°C° 0.2 mm 7 mps 735 mmHg 94%
    16:00 -4°C° 0.2 mm 7 mps 734 mmHg 94%
    17:00 -4°C° 0.2 mm 7 mps 733 mmHg 94%
    18:00 -3°C° 0.1 mm 7 mps 733 mmHg 95%
    19:00 -2°C° 0.1 mm 7 mps 733 mmHg 96%
    20:00 -1°C° 0.1 mm 7 mps 733 mmHg 97%
    21:00 -1°C° 0.3 mm 7 mps 733 mmHg 97%
    22:00 -1°C° 0.3 mm 7 mps 732 mmHg 97%
    23:00 -1°C° 0.3 mm 7 mps 732 mmHg 97%

    25 January, Saturday

    Time Temperature Precipitation Wind Pressure Humidity
    00:00 -1°C° 0.1 mm 6 mps 732 mmHg 97%
    01:00 -1°C° 0.1 mm 6 mps 732 mmHg 97%
    02:00 -1°C° 0.1 mm 6 mps 732 mmHg 97%
    03:00 -1°C° 0.1 mm 6 mps 731 mmHg 97%
    04:00 -1°C° 0.1 mm 6 mps 731 mmHg 96%
    05:00 -1°C° 0.1 mm 6 mps 731 mmHg 96%
    06:00 -1°C° 0.1 mm 6 mps 731 mmHg 96%
    07:00 -2°C° 0.1 mm 6 mps 731 mmHg 97%
    08:00 -1°C° 0.1 mm 5 mps 731 mmHg 97%
    09:00 -2°C° 0.2 mm 6 mps 731 mmHg 97%
    10:00 -2°C° 0.2 mm 6 mps 731 mmHg 97%
    11:00 -2°C° 0.2 mm 6 mps 731 mmHg 97%
    12:00 -2°C° 0.1 mm 6 mps 731 mmHg 97%
    13:00 -2°C° 0.1 mm 7 mps 731 mmHg 97%
    14:00 -2°C° 0.1 mm 7 mps 730 mmHg 97%
    15:00 -2°C° 0.1 mm 7 mps 730 mmHg 95%
    16:00 -2°C° 0.1 mm 8 mps 730 mmHg 94%
    17:00 -2°C° 0.1 mm 8 mps 730 mmHg 92%
    18:00 -2°C° 0 mm 8 mps 731 mmHg 89%
    19:00 -2°C° 0 mm 8 mps 731 mmHg 86%
    20:00 -4°C° 0 mm 8 mps 731 mmHg 82%
    21:00 -4°C° 0 mm 8 mps 732 mmHg 82%
    22:00 -3°C° 0 mm 7 mps 732 mmHg 82%
    23:00 -4°C° 0 mm 7 mps 733 mmHg 82%

    26 January, Sunday

    Time Temperature Precipitation Wind Pressure Humidity
    00:00 -4°C° 0 mm 7 mps 733 mmHg 81%
    01:00 -4°C° 0 mm 7 mps 734 mmHg 80%
    02:00 -5°C° 0 mm 6 mps 734 mmHg 79%
    03:00 -5°C° 0 mm 6 mps 735 mmHg 80%
    04:00 -5°C° 0 mm 6 mps 735 mmHg 80%
    05:00 -6°C° 0 mm 6 mps 736 mmHg 81%
    06:00 -6°C° 0 mm 6 mps 737 mmHg 82%
    07:00 -6°C° 0 mm 6 mps 738 mmHg 82%
    08:00 -6°C° 0 mm 5 mps 738 mmHg 83%
    09:00 -6°C° 0 mm 6 mps 739 mmHg 82%
    10:00 -5°C° 0 mm 6 mps 740 mmHg 81%
    11:00 -5°C° 0 mm 6 mps 741 mmHg 79%
    12:00 -5°C° 0 mm 5 mps 741 mmHg 79%
    13:00 -5°C° 0 mm 5 mps 741 mmHg 79%
    14:00 -4°C° 0 mm 4 mps 742 mmHg 79%
    15:00 -4°C° 0 mm 4 mps 742 mmHg 81%
    16:00 -5°C° 0 mm 3 mps 742 mmHg 83%
    17:00 -5°C° 0 mm 3 mps 743 mmHg 85%
    18:00 -5°C° 0 mm 3 mps 743 mmHg 86%
    19:00 -5°C° 0 mm 3 mps 744 mmHg 86%
    20:00 -5°C° 0 mm 3 mps 744 mmHg 87%
    21:00 -5°C° 0 mm 3 mps 744 mmHg 86%
    22:00 -5°C° 0 mm 3 mps 744 mmHg 85%
    23:00 -5°C° 0 mm 3 mps 745 mmHg 85%

    27 January, Monday

    Time Temperature Precipitation Wind Pressure Humidity
    00:00 -5°C° 0 mm 3 mps 745 mmHg 84%
    01:00 -5°C° 0 mm 3 mps 744 mmHg 84%
    02:00 -5°C° 0 mm 3 mps 744 mmHg 83%
    03:00 -5°C° 0 mm 4 mps 744 mmHg 84%
    04:00 -4°C° 0 mm 4 mps 744 mmHg 84%
    05:00 -4°C° 0 mm 4 mps 744 mmHg 84%
    06:00 -5°C° 0 mm 4 mps 744 mmHg 86%
    07:00 -6°C° 0 mm 5 mps 744 mmHg 87%
    08:00 -6°C° 0 mm 5 mps 744 mmHg 89%
    09:00 -5°C° 0 mm 5 mps 744 mmHg 89%
    10:00 -5°C° 0 mm 5 mps 744 mmHg 89%
    11:00 -4°C° 0 mm 5 mps 744 mmHg 89%
    12:00 -4°C° 0 mm 5 mps 743 mmHg 89%
    13:00 -4°C° 0 mm 5 mps 743 mmHg 89%
    14:00 -4°C° 0 mm 5 mps 742 mmHg 90%
    15:00 -4°C° 0 mm 5 mps 742 mmHg 91%
    16:00 -4°C° 0 mm 5 mps 742 mmHg 91%
    17:00 -4°C° 0 mm 5 mps 741 mmHg 92%
    18:00 -4°C° 0.1 mm 5 mps 741 mmHg 93%
    19:00 -4°C° 0.1 mm 5 mps 740 mmHg 94%
    20:00 -4°C° 0.1 mm 6 mps 740 mmHg 94%
    21:00 -4°C° 0.1 mm 6 mps 739 mmHg 95%
    22:00 -4°C° 0.1 mm 5 mps 739 mmHg 96%
    23:00 -4°C° 0.1 mm 5 mps 738 mmHg 96%
    Show more